Volver al catálogo

COSMOS 2251 DEB

ActivoLEO
NORAD 37126·DEBRIS·🇷🇺 Russia

Lanzado Jun 16, 1993 desde Plesetsk Cosmodrome

Loading…

Próximos Pases (próximas 24 horas)

TLE

EnvejeciendoSource: Space-Track

Época: Sep 10, 2026, 03:24 UTC

1 37126U 93036BGY 26253.14208768  .00001183  00000-0  16622-3 0  9997
2 37126  73.9518 182.5465 0120520 355.6493   4.3618 14.73823314120966

Sigue COSMOS 2251 DEB en tiempo real con AllMySat

Download on the App Store